Content
SEND FEEDBACK

Daily
Averages
Monthly
Summary
United States of America

KANAB, UTAH


Home > North America > United States > Utah
Elevation: 4530 feet     Latitude: 37 06N     Longitude: 111 46W

WEATHER
 
SELECT A DAY
Number of Records: 197,164;   Date Range: 1/1/95 - 10/23/14
 
SHARE

PRINT THIS DATA

[ ← Previous Day ]
WEATHER ALMANAC - APRIL 5, 2013
[ Next Day → ]
[ °C ]   °F
Weather ElementAverageHighLow
Temperature69.1 °F78.1 °F (2:53 pm)61 °F (5:53 am)
Dewpoint22.8 °F28 °F (11:53 pm)16 °F (4:53 pm)
Humidity17.9 %25 % (11:53 pm)10 % (4:53 pm)
Barometer29.76 in29.83 in (7:53 am)29.68 in (3:53 pm)
Wind Speed6.6 mph15 mph (3:53 pm)
Wind Gust26.5 mph (4:53 pm)
Weather ElementAverage
Visibility10 mi
Wind DirectionS (185.2 °)

Weather ElementTotal
Precipitation---
Cooling Degree Days4.6 (Base 65)
Growing Degree Days19.6 (Base 50)
Averaged from 23 records on April 5, 2013
WEATHER CONDITIONS BREAKOUT
WIND DIRECTION BREAKOUT
WEATHER BY HOUR - APRIL 5, 2013
[ °C ]   °F
Local TimeTemperatureDewpointHumidityBarometerVisibilityWind DirectionWind SpeedGust SpeedPrecipitationEventsConditions
1:53 AM63.0 °F21.0 °F20 %29.82 in10.0 miCalmClear
2:53 AM62.1 °F21.0 °F21 %29.81 in10.0 miCalmClear
3:53 AM63.0 °F21.0 °F20 %29.80 in10.0 miSouth (190°)3.5 mphPartly Cloudy
4:53 AM64.9 °F23.0 °F20 %29.78 in10.0 miWSW (240°)4.6 mphScattered Clouds
5:53 AM61.0 °F21.0 °F21 %29.81 in10.0 miSouth (180°)6.9 mphOvercast
6:53 AM61.0 °F21.9 °F22 %29.82 in10.0 miSouth (190°)3.5 mphClear
7:53 AM63.0 °F23.0 °F22 %29.83 in10.0 miSSW (200°)4.6 mphScattered Clouds
8:53 AM69.1 °F24.1 °F18 %29.82 in10.0 miVariable6.9 mphClear
9:53 AM69.1 °F26.1 °F20 %29.82 in10.0 miNorth (350°)6.9 mphClear
10:53 AM72.0 °F27.0 °F19 %29.80 in10.0 miSW (220°)11.5 mph18.4 mphClear
11:53 AM72.0 °F27.0 °F19 %29.75 in10.0 miCalmClear
12:53 PM77.0 °F24.1 °F14 %29.72 in10.0 miSW (220°)12.7 mph21.9 mphPartly Cloudy
1:53 PM75.9 °F21.0 °F13 %29.70 in10.0 miVariable4.6 mphPartly Cloudy
2:53 PM78.1 °F23.0 °F13 %29.69 in10.0 miWNW (290°)9.2 mph24.2 mphClear
3:53 PM78.1 °F23.0 °F13 %29.68 in10.0 miWest (280°)15.0 mph24.2 mphClear
4:53 PM75.9 °F16.0 °F10 %29.68 in10.0 miWest (270°)13.8 mph26.5 mphClear
5:53 PM73.9 °F21.0 °F14 %29.69 in10.0 miWest (270°)12.7 mph18.4 mphClear
6:53 PM72.0 °F23.0 °F16 %29.70 in10.0 miWest (270°)9.2 mphClear
7:53 PM70.0 °F19.0 °F14 %29.74 in10.0 miWest (260°)8.1 mphClear
8:53 PM69.1 °F21.9 °F17 %29.75 in10.0 miWest (260°)6.9 mphClear
9:53 PM68.0 °F21.9 °F17 %29.77 in10.0 miWest (270°)6.9 mphClear
10:53 PM66.0 °F27.0 °F23 %29.78 in10.0 miWNW (300°)3.5 mphClear
11:53 PM64.9 °F28.0 °F25 %29.78 in10.0 miCalmClear
Hourly data recorded from KPGA, located miles away from Kanab, Utah







STORIES FROM OUR PARTNERS